Date String (YYYY-MM-DD hh:mm:ss) UTC,Instrument flags,absolute air pressure of the measurement (hPa),sample flow rate (lpm),inlet stack bypass flow (lpm),air temperature of the measurement (°C),ambient temperature measured by the external sensor (°C),aerosol sample conditioner tube jacket temperature (°C),OPC LED temperature (°C),internal box temperature (°C),relative humidity of the measurement (%),span deviation,mass concentration of particles derived from Lorenz-Mie calculation of OPC scattering (μg/m³),mass concentration of particles derived from Lorenz-Mie calculation of OPC scattering (μg/m³),mass concentration of particles derived from Lorenz-Mie calculation of OPC scattering (μg/m³)
DateTimeUTC,F1_M11,P_M11,Q1_M11,Q2_M11,T1_M11,T2_M11,T3_M11,T4_M11,T5_M11,U1_M11,ZSPAN_M11,X0_M11,X2_M11,X1_M11
2024-06-07 18:00:00,SystemResetWarning,0827.4,5.01,000.00,028.8,027.8,000.0,037.0,030.6,017.9,0000.0,0007.65,0002.74,0001.72
2024-06-07 18:01:00,SystemResetWarning,0827.4,5.01,000.00,028.9,028.1,000.0,037.0,030.7,017.7,0000.0,0008.17,0002.76,0001.71
2024-06-07 18:02:00,SystemResetWarning,0827.4,5.00,000.00,029.0,028.3,000.0,037.1,030.8,017.3,0000.0,0008.50,0002.79,0001.71
2024-06-07 18:03:00,SystemResetWarning,0827.4,5.00,000.00,029.1,028.5,000.0,037.1,030.9,017.0,0000.0,0008.64,0002.83,0001.71
2024-06-07 18:04:00,SystemResetWarning,0827.4,5.00,000.00,029.1,028.7,000.0,037.1,031.0,016.9,0000.0,0008.64,0002.83,0001.71
2024-06-07 18:05:00,SystemResetWarning,0827.4,4.99,000.00,029.2,028.8,000.0,037.2,031.1,017.2,0000.0,0008.63,0002.91,0001.72
2024-06-07 18:06:00,SystemResetWarning,0827.4,5.00,000.00,029.2,028.1,000.0,037.3,030.7,017.7,0000.0,0008.51,0002.96,0001.73
2024-06-07 18:07:00,SystemResetWarning,0827.3,5.00,000.00,028.9,026.0,000.0,037.3,029.7,017.7,0000.0,0007.90,0002.99,0001.72
2024-06-07 18:08:00,SystemResetWarning,0827.3,5.02,000.00,028.6,025.7,000.0,037.3,029.5,018.0,0000.0,0007.73,0002.97,0001.73
2024-06-07 18:09:00,SystemResetWarning,0827.3,4.99,000.00,028.6,026.3,000.0,037.2,029.7,017.7,0000.0,0008.15,0002.91,0001.72
2024-06-07 18:10:00,SystemResetWarning,0827.3,4.99,000.00,028.6,026.7,000.0,037.1,030.0,018.0,0000.0,0008.36,0002.90,0001.69
2024-06-07 18:11:00,SystemResetWarning,0827.3,5.00,000.00,028.7,027.1,000.0,037.1,030.2,018.9,0000.0,0008.44,0002.85,0001.69
2024-06-07 18:12:00,SystemResetWarning,0827.4,5.00,000.00,028.7,027.4,000.0,037.0,030.4,019.0,0000.0,0008.03,0002.77,0001.68
2024-06-07 18:13:00,SystemResetWarning,0827.3,5.01,000.00,028.8,027.8,000.0,037.0,030.5,018.1,0000.0,0007.53,0002.77,0001.69
2024-06-07 18:14:00,SystemResetWarning,0827.4,4.99,000.00,028.9,028.0,000.0,037.0,030.7,018.7,0000.0,0007.45,0002.78,0001.68
2024-06-07 18:15:00,SystemResetWarning,0827.4,4.99,000.00,029.0,028.3,000.0,037.1,030.8,018.1,0000.0,0007.52,0002.77,0001.68
2024-06-07 18:16:00,SystemResetWarning,0827.4,4.99,000.00,029.1,028.5,000.0,037.1,030.9,017.9,0000.0,0008.19,0002.84,0001.68
2024-06-07 18:17:00,SystemResetWarning,0827.4,5.00,000.00,029.2,028.7,000.0,037.1,031.0,017.1,0000.0,0007.98,0002.83,0001.68
2024-06-07 18:18:00,SystemResetWarning,0827.4,4.99,000.00,029.2,028.8,000.0,037.2,031.1,016.9,0000.0,0007.95,0002.79,0001.66
2024-06-07 18:19:00,SystemResetWarning,0827.3,5.00,000.00,029.2,027.7,000.0,037.3,030.4,017.6,0000.0,0007.83,0002.83,0001.65
2024-06-07 18:20:00,SystemResetWarning,0827.2,5.01,000.00,028.8,025.8,000.0,037.3,029.5,017.4,0000.0,0007.37,0002.86,0001.65
2024-06-07 18:21:00,SystemResetWarning,0827.2,5.02,000.00,028.6,025.9,000.0,037.3,029.5,017.4,0000.0,0007.10,0002.80,0001.66
2024-06-07 18:22:00,SystemResetWarning,0827.2,4.99,000.00,028.6,026.4,000.0,037.2,029.8,017.9,0000.0,0007.23,0002.80,0001.64
2024-06-07 18:23:00,SystemResetWarning,0827.2,4.99,000.00,028.6,026.8,000.0,037.1,030.0,017.8,0000.0,0007.40,0002.82,0001.65
2024-06-07 18:24:00,SystemResetWarning,0827.2,5.02,000.00,028.7,027.2,000.0,037.1,030.3,017.8,0000.0,0007.50,0002.87,0001.64
2024-06-07 18:25:00,SystemResetWarning,0827.2,5.00,000.00,028.7,027.6,000.0,037.0,030.4,018.4,0000.0,0008.00,0002.82,0001.63
2024-06-07 18:26:00,SystemResetWarning,0827.2,4.99,000.00,028.8,027.9,000.0,037.0,030.6,020.0,0000.0,0008.06,0002.80,0001.63
2024-06-07 18:27:00,SystemResetWarning,0827.2,4.99,000.00,028.9,028.1,000.0,037.0,030.7,024.0,0000.0,0007.68,0002.74,0001.64
2024-06-07 18:28:00,SystemResetWarning,0827.2,5.00,000.00,029.0,028.4,000.0,037.1,030.9,025.1,0000.0,0008.23,0002.90,0001.70
2024-06-07 18:29:00,SystemResetWarning,0827.2,5.00,000.00,029.1,028.6,000.0,037.1,031.0,025.9,0000.0,0008.77,0003.08,0001.78
2024-06-07 18:30:00,SystemResetWarning,0827.2,5.00,000.00,029.2,028.7,000.0,037.1,031.1,025.5,0000.0,0009.28,0003.22,0001.86
2024-06-07 18:31:00,SystemResetWarning,0827.2,5.00,000.00,029.3,028.8,000.0,037.2,031.1,025.1,0000.0,0009.92,0003.39,0001.96
2024-06-07 18:32:00,SystemResetWarning,0827.2,4.98,000.00,029.2,027.3,000.0,037.3,030.4,024.2,0000.0,0011.00,0003.53,0002.05
2024-06-07 18:33:00,SystemResetWarning,0827.1,5.02,000.00,028.8,025.7,000.0,037.3,029.5,023.2,0000.0,0011.99,0003.69,0002.15
2024-06-07 18:34:00,SystemResetWarning,0827.1,5.00,000.00,028.6,026.0,000.0,037.3,029.6,023.4,0000.0,0012.25,0003.81,0002.22
2024-06-07 18:35:00,SystemResetWarning,0827.1,4.99,000.00,028.6,026.5,000.0,037.2,029.9,024.1,0000.0,0013.22,0003.89,0002.28
2024-06-07 18:36:00,SystemResetWarning,0827.1,5.01,000.00,028.6,026.9,000.0,037.1,030.1,023.5,0000.0,0013.29,0003.98,0002.36
2024-06-07 18:37:00,SystemResetWarning,0827.1,5.01,000.00,028.7,027.3,000.0,037.1,030.3,023.8,0000.0,0013.67,0004.04,0002.42
2024-06-07 18:38:00,SystemResetWarning,0827.1,5.00,000.00,028.8,027.7,000.0,037.1,030.5,022.8,0000.0,0013.53,0004.07,0002.47
2024-06-07 18:39:00,SystemResetWarning,0827.1,5.00,000.00,028.9,028.0,000.0,037.1,030.6,021.5,0000.0,0013.99,0004.11,0002.46
2024-06-07 18:40:00,SystemResetWarning,0827.1,5.00,000.00,028.9,028.2,000.0,037.1,030.8,022.1,0000.0,0013.96,0004.13,0002.44
2024-06-07 18:41:00,SystemResetWarning,0827.1,4.99,000.00,029.0,028.4,000.0,037.1,030.9,021.2,0000.0,0014.02,0004.09,0002.41
2024-06-07 18:42:00,SystemResetWarning,0827.2,4.99,000.00,029.1,028.6,000.0,037.1,031.0,020.3,0000.0,0014.01,0003.99,0002.34
2024-06-07 18:43:00,SystemResetWarning,0827.1,4.99,000.00,029.2,028.5,000.0,037.2,030.9,020.4,0000.0,0013.26,0003.90,0002.27
2024-06-07 18:44:00,SystemResetWarning,0827.0,4.99,000.00,029.0,026.6,000.0,037.3,030.0,020.2,0000.0,0013.21,0003.81,0002.22
2024-06-07 18:45:00,SystemResetWarning,0827.1,5.00,000.00,028.6,025.6,000.0,037.3,029.5,021.4,0000.0,0013.23,0003.74,0002.19
2024-06-07 18:46:00,SystemResetWarning,0827.0,5.02,000.00,028.5,026.1,000.0,037.2,029.7,022.3,0000.0,0013.05,0003.70,0002.15
2024-06-07 18:47:00,SystemResetWarning,0827.0,5.00,000.00,028.6,026.6,000.0,037.1,029.9,021.0,0000.0,0012.81,0003.66,0002.11
2024-06-07 18:48:00,SystemResetWarning,0827.0,5.00,000.00,028.6,027.0,000.0,037.1,030.1,019.9,0000.0,0012.93,0003.64,0002.05
2024-06-07 18:49:00,SystemResetWarning,0827.0,5.01,000.00,028.7,027.4,000.0,037.0,030.3,020.3,0000.0,0013.06,0003.64,0002.01
2024-06-07 18:50:00,SystemResetWarning,0827.0,5.00,000.00,028.8,027.7,000.0,037.0,030.5,020.1,0000.0,0012.15,0003.56,0001.98
2024-06-07 18:51:00,SystemResetWarning,0827.0,5.00,000.00,028.8,028.0,000.0,037.0,030.6,021.7,0000.0,0011.88,0003.48,0001.95
2024-06-07 18:52:00,SystemResetWarning,0827.0,5.00,000.00,028.9,028.3,000.0,037.0,030.8,023.3,0000.0,0011.62,0003.46,0001.93
2024-06-07 18:53:00,SystemResetWarning,0827.0,5.00,000.00,029.0,028.5,000.0,037.1,030.9,019.6,0000.0,0012.70,0003.49,0001.94
2024-06-07 18:54:00,SystemResetWarning,0827.0,4.99,000.00,029.1,028.5,000.0,037.1,030.9,019.0,0000.0,0013.69,0003.52,0001.95
2024-06-07 18:55:00,SystemResetWarning,0826.9,4.99,000.00,029.0,026.9,000.0,037.2,030.1,020.3,0000.0,0014.58,0003.50,0001.95
2024-06-07 18:56:00,SystemResetWarning,0826.8,5.01,000.00,028.6,025.5,000.0,037.2,029.4,022.2,0000.0,0013.96,0003.45,0001.93
2024-06-07 18:57:00,SystemResetWarning,0826.8,5.01,000.00,028.5,026.0,000.0,037.2,029.5,023.1,0000.0,0013.60,0003.46,0001.94
2024-06-07 18:58:00,SystemResetWarning,0826.7,4.98,000.00,028.5,026.4,000.0,037.1,029.8,021.1,0000.0,0013.62,0003.49,0001.96
2024-06-07 18:59:00,SystemResetWarning,0826.9,5.00,000.00,028.5,026.9,000.0,037.0,030.0,022.6,0000.0,0013.86,0003.52,0002.00
